This is the latest recevied weather packets stored in our database for station/object DK6MAX-13. If no packets are shown the sender has not sent any weather packets the latest 10 day(s).
| Time | Temp. | Humidity | Pressure | Rain* | Wind** | Luminosity | Snow |
|---|---|---|---|---|---|---|---|
| 1777192788 | 13.89° C | 39% | 1025.4 hPa | - | - | - | - |
| 1777192728 | 14.44° C | 39% | 1025.3 hPa | - | - | - | - |
| 1777192728 | 14.44° C | 39% | 1025.4 hPa | - | - | - | - |
| 1777192728 | 14.44° C | 42% | 1025.3 hPa | - | - | - | - |
| 1777192668 | 15.56° C | 42% | 1025.3 hPa | - | - | - | - |
| 1777192668 | 15.56° C | 46% | 1025.3 hPa | - | - | - | - |
| 1777192608 | 15.56° C | 42% | 1025.4 hPa | - | - | - | - |
| 1777192608 | 15.56° C | 46% | 1025.4 hPa | - | - | - | - |
| 1777192608 | 15.56° C | 46% | 1025.3 hPa | - | - | - | - |
| 1777192548 | 15° C | 42% | 1025.4 hPa | - | - | - | - |
| 1777192548 | 15° C | 42% | 1025.3 hPa | - | - | - | - |
| 1777192547 | 15° C | 43% | 1025.3 hPa | - | - | - | - |
| 1777192488 | 16.11° C | 43% | 1025.3 hPa | - | - | - | - |
| 1777192488 | 16.11° C | 40% | 1025.3 hPa | - | - | - | - |
| 1777192428 | 16.11° C | 40% | 1025.3 hPa | - | - | - | - |
| 1777192428 | 16.11° C | 40% | 1025.4 hPa | - | - | - | - |
| 1777192428 | 16.11° C | 43% | 1025.4 hPa | - | - | - | - |
| 1777192368 | 15.56° C | 43% | 1025.3 hPa | - | - | - | - |
| 1777192368 | 15.56° C | 43% | 1025.4 hPa | - | - | - | - |
| 1777192368 | 15.56° C | 42% | 1025.3 hPa | - | - | - | - |
| 1777192308 | 15.56° C | 42% | 1025.3 hPa | - | - | - | - |
| 1777192308 | 15.56° C | 42% | 1025.4 hPa | - | - | - | - |
| 1777192308 | 15.56° C | 47% | 1025.4 hPa | - | - | - | - |
| 1777192248 | 14.44° C | 47% | 1025.4 hPa | - | - | - | - |
| 1777192248 | 14.44° C | 44% | 1025.4 hPa | - | - | - | - |
* Rain since midnight (hover to see other rain measurements)
** Current wind speed in m/s (hover to see current wind gust speed)